[[{"header":{"parameterUnit":"m.s-1","parameterCategory":2,"la1":30.2991,"la2":30.254,"lo1":-89.0895,"lo2":-89.0444,"dy":0.0017,"dx":0.0017,"nx":28,"ny":28,"refTime":"2025-03-29T03:00:00:Z","depth":"0","parameterNumber":2,"parameterNumberName":"U-component_of_CURRENTS"},"data":[0,0,0,0,0,0,0,0,0,0,0,0,0,0,0,0,0,0,0,0,0,0,0,0,0,0,0,0,0,0,0,0,0,0,0,0,0,0,0,0,0,0,0,0,0,0,0,0,0,0,0,0,0,0,0,0,0,0,0.3459,0.346,0,0.3568,0.3569,0.357,0.3644,0.3644,0.3644,0.3645,0.3696,0.3697,0.3698,0,0,0,0,0,0,0,0,0,0,0,0,0,0.3348,0.335,0.3459,0.346,0.3462,0.3568,0.3569,0.3571,0.3643,0.3644,0.3645,0.3645,0.3696,0.3697,0.3698,0,0,0,0,0,0,0,0,0,0,0,0,0,0.3421,0.335,0.3459,0.351,0.3516,0.3567,0.3569,0.3571,0.3643,0.3644,0.3645,0.3645,0.3696,0.3697,0.3699,0.3694,0,0,0.3703,0.3704,0,0,0,0,0,0,0,0,0.3417,0.3425,0.3501,0.3507,0.3513,0.3592,0.3549,0.3609,0.3643,0.3596,0.3645,0.3646,0.3655,0.366,0.3681,0.3697,0.3699,0.3703,0.3704,0.3705,0.3705,0,0,0,0,0,0,0,0.3412,0.3421,0.3503,0.3503,0.351,0.3539,0.355,0.3561,0.362,0.36,0.3605,0.3616,0.3658,0.3679,0.3682,0.37,0.3703,0.3704,0.3705,0.3706,0.3794,0.3796,0,0,0,0,0,0,0.3395,0.3416,0.3499,0.3506,0.3465,0.354,0.3553,0.3567,0.3621,0.3631,0.3615,0.3619,0.3677,0.3681,0.3684,0.3756,0.3705,0.3706,0.3707,0.3793,0.3795,0.3796,0,0,0,0,0,0,0.3392,0.3401,0.3495,0.3463,0.3477,0.3541,0.3557,0.3568,0.3599,0.3633,0.3642,0.3634,0.3677,0.3682,0.3715,0.3756,0.3707,0.3708,0.3791,0.3793,0.3795,0.3852,0,0,0,0,0,0,0.3388,0.3399,0.3404,0.3462,0.3478,0.3536,0.3556,0.357,0.3603,0.3609,0.3652,0.3657,0.3678,0.3713,0.3717,0.3757,0.3709,0.3789,0.3792,0.3795,0.3848,0.3856,0.3862,0,0,0,0,0,0.3384,0.3395,0.3403,0.3413,0.3482,0.3536,0.3548,0.3596,0.3603,0.3623,0.3655,0.3656,0.3734,0.3715,0.3719,0.3761,0.3788,0.3791,0.3794,0.3845,0.3854,0.3862,0,0,0,0,0,0,0.3352,0.3404,0.3415,0.3441,0.3485,0.3548,0.3571,0.3594,0.3636,0.3639,0.3667,0.3675,0.3727,0.3726,0.3705,0.3795,0.3764,0.3768,0.3801,0.381,0.3817,0.384,0.371,0,0,0,0,0,0.3343,0.3365,0.3417,0.3438,0.3458,0.3509,0.3535,0.3566,0.361,0.363,0.3659,0.3693,0.3742,0.376,0.3793,0.3826,0.3847,0.3858,0.3865,0.3871,0.3893,0.3975,0.3992,0.3807,0.3807,0.3807,0,0,0.3333,0.3368,0.3378,0.3433,0.347,0.3513,0.3528,0.357,0.3617,0.3624,0.3686,0.3715,0.3756,0.3815,0.3837,0.382,0.3928,0.3875,0.388,0.39,0.3981,0.3999,0.4015,0.3809,0.3809,0.3809,0,0,0.3335,0.3359,0.3379,0.342,0.3474,0.3512,0.3522,0.3581,0.3621,0.3672,0.3707,0.3763,0.3805,0.3868,0.3901,0.396,0.3964,0.3959,0.4014,0.4093,0.411,0.4124,0.4144,0.416,0.3961,0.3961,0.3961,0,0.3321,0.3357,0.3394,0.3434,0.3468,0.3511,0.3547,0.3601,0.3665,0.3708,0.3696,0.3822,0.3846,0.3959,0.3988,0.3981,0.4002,0.3978,0.4104,0.412,0.4134,0.4151,0.4168,0.3964,0.3964,0.3963,0.3963,0,0.3344,0.3376,0.3396,0.346,0.3503,0.3539,0.3612,0.3662,0.3699,0.3755,0.3858,0.3906,0.3986,0.4005,0.4017,0.4138,0.411,0.4106,0.4084,0.4156,0.4169,0.4186,0.3968,0.3967,0.3966,0.3966,0,0,0.3298,0.339,0.3396,0.3427,0.3516,0.355,0.3641,0.3735,0.3798,0.3872,0.3963,0.4065,0.4093,0.4133,0.4161,0.4231,0.4335,0.4212,0.4214,0.4233,0.4474,0.4363,0.437,0.4355,0.4359,0.4362,0.443,0,0.3301,0.3364,0.3416,0.3479,0.3516,0.3596,0.3674,0.3769,0.3849,0.3947,0.4045,0.4128,0.4144,0.4176,0.4264,0.4325,0.4388,0.4314,0.44,0.4402,0.4299,0.4391,0.4253,0.4296,0.4447,0.4449,0.4451,0,0.3301,0.3346,0.34,0.349,0.3512,0.3556,0.3682,0.3756,0.392,0.3985,0.4114,0.4183,0.4327,0.4303,0.448,0.4432,0.4465,0.4498,0.4502,0.4399,0.4326,0.4255,0.4321,0.4227,0.4477,0.4475,0.4474,0,0.3246,0.333,0.3367,0.34,0.3513,0.3553,0.3611,0.3761,0.3844,0.4008,0.4087,0.4257,0.4343,0.4448,0.4541,0.4517,0.4702,0.467,0.4601,0.4591,0.4492,0.4466,0.4484,0.479,0.479,0.479,0.479,0,0.3232,0.3261,0.3336,0.336,0.3405,0.3494,0.3569,0.3669,0.3823,0.3912,0.4089,0.419,0.4389,0.452,0.4576,0.4649,0.4738,0.4637,0.4625,0.45,0.4476,0.4401,0.4358,0.4793,0.4792,0.4792,0.4791,0,0.3184,0.3233,0.3274,0.336,0.3381,0.3409,0.3525,0.3586,0.3743,0.387,0.3926,0.4179,0.4328,0.4497,0.4659,0.4677,0.4622,0.4742,0.4553,0.4517,0.4319,0.4283,0.4134,0.4004,0.4671,0.4669,0.4668,0,0.3176,0.3189,0.3249,0.3254,0.3287,0.3338,0.3374,0.3524,0.3594,0.3835,0.3886,0.4105,0.424,0.4463,0.4531,0.4625,0.4527,0.4525,0.446,0.4312,0.4266,0.4096,0.3986,0.4341,0.4337,0.4334,0.4331,0,0.3154,0.3161,0.3185,0.3186,0.3202,0.3239,0.3296,0.3352,0.3517,0.3635,0.3785,0.3921,0.4152,0.4223,0.4369,0.4401,0.4302,0.4451,0.4384,0.4086,0.3823,0.3689,0.4254,0.43,0.4303,0.4306,0.4307,0.4308,0.312,0.3104,0.3105,0.3095,0.3109,0.3112,0.3098,0.3191,0.3275,0.3415,0.3597,0.3736,0.3953,0.4143,0.4136,0.407,0.4045,0.4001,0.3992,0.3849,0.3655,0.4114,0.4088,0.409,0.4092,0.4093,0.4094,0,0.304,0.3015,0.3011,0.297,0.2924,0.298,0.3015,0.2986,0.3009,0.3209,0.3326,0.3527,0.3633,0.3769,0.382,0.3689,0.3517,0.3594,0.337,0.3303,0.3811,0.3729,0.352,0.352,0.352,0.352,0.352,0.3521,0.2995,0.2923,0.2896,0.2775,0.2751,0.2653,0.2642,0.2651,0.2749,0.2852,0.2971,0.3146,0.346,0.3613,0.3531,0.3434,0.3168,0.3008,0.2984,0.3412,0.345,0.3486,0.34,0.3126,0.3125,0.2348,0.2342,0.2338]},{"header":{"parameterUnit":"m.s-1","parameterCategory":2,"la1":30.2991,"la2":30.254,"lo1":-89.0895,"lo2":-89.0444,"dy":0.0017,"dx":0.0017,"nx":28,"ny":28,"refTime":"2025-03-29T03:00:00:Z","depth":"0","parameterNumber":3,"parameterNumberName":"V-component_of_CURRENTS"},"data":[0,0,0,0,0,0,0,0,0,0,0,0,0,0,0,0,0,0,0,0,0,0,0,0,0,0,0,0,0,0,0,0,0,0,0,0,0,0,0,0,0,0,0,0,0,0,0,0,0,0,0,0,0,0,0,0,0,0,0.0244,0.0243,0,0.0154,0.0153,0.0151,0.0094,0.0094,0.0093,0.0093,-0.0034,-0.0037,-0.004,0,0,0,0,0,0,0,0,0,0,0,0,0,0.0304,0.0303,0.0244,0.0243,0.0242,0.0154,0.0153,0.0151,0.0094,0.0094,0.0093,0.0093,-0.0033,-0.0036,-0.004,0,0,0,0,0,0,0,0,0,0,0,0,0,0.0251,0.0303,0.0244,0.0203,0.0199,0.0154,0.0152,0.0151,0.0094,0.0094,0.0093,0.0093,-0.0031,-0.0036,-0.0041,-0.0062,0,0,-0.0055,-0.0057,0,0,0,0,0,0,0,0,0.0255,0.0249,0.021,0.0206,0.0201,0.0135,0.0127,0.0078,0.0094,0.0133,0.0093,0.0093,0.002,0.0011,-0.0006,-0.0068,-0.0073,-0.0055,-0.0058,-0.006,-0.0062,0,0,0,0,0,0,0,0.0258,0.0252,0.0207,0.0209,0.0204,0.0168,0.0161,0.0117,0.0079,0.0129,0.0125,0.0117,0.0017,-0.0001,-0.0009,-0.0075,-0.0055,-0.006,-0.0062,-0.0064,-0.0158,-0.0158,0,0,0,0,0,0,0.0275,0.0256,0.021,0.0205,0.0228,0.0168,0.0159,0.0156,0.008,0.0068,0.0117,0.0115,0.0007,-0.0003,-0.0014,-0.0027,-0.006,-0.0065,-0.0067,-0.0158,-0.0158,-0.0157,0,0,0,0,0,0,0.0277,0.0272,0.0214,0.0229,0.0219,0.0168,0.0164,0.0155,0.0139,0.0071,0.0058,0.0112,0.0007,-0.0007,-0.0045,-0.0033,-0.0067,-0.0071,-0.0159,-0.0158,-0.0158,-0.0065,0,0,0,0,0,0,0.0279,0.0273,0.0276,0.023,0.0219,0.0195,0.0164,0.0153,0.0135,0.013,0.0062,0.005,0.0005,-0.0037,-0.0049,-0.0041,-0.0075,-0.0159,-0.0158,-0.0158,-0.0069,-0.0062,-0.0056,0,0,0,0,0,0.0282,0.0292,0.0277,0.0271,0.0225,0.0196,0.0187,0.0148,0.0135,0.0132,0.0089,0.0052,-0.0042,-0.0041,-0.0055,-0.0047,-0.0159,-0.0159,-0.0158,-0.0072,-0.0063,-0.0056,0,0,0,0,0,0,0.0315,0.0286,0.0268,0.0268,0.0237,0.0187,0.0183,0.0156,0.0119,0.0119,0.0054,0.0039,0.001,-0.0032,-0.0029,-0.0073,-0.0106,-0.0108,-0.0036,-0.0028,-0.0022,0.0012,-0.0079,0,0,0,0,0,0.0326,0.0328,0.0288,0.0287,0.0279,0.0233,0.0216,0.0192,0.0154,0.0138,0.009,0.0042,0.0001,-0.0022,-0.0066,-0.009,-0.0118,-0.0095,-0.0088,-0.0082,-0.0065,-0.0096,-0.009,-0.0155,-0.0155,-0.0155,0,0,0.0337,0.0322,0.0321,0.0295,0.027,0.027,0.0222,0.0209,0.0207,0.013,0.0114,0.0063,-0.0,-0.0027,-0.0043,-0.0059,-0.0079,-0.0081,-0.0076,-0.0062,-0.0094,-0.0088,-0.0082,-0.0155,-0.0155,-0.0155,0,0,0.0371,0.0351,0.037,0.0353,0.0327,0.03,0.0302,0.0259,0.0239,0.0213,0.0162,0.0123,0.0055,0.0019,-0.001,0.0006,-0.0043,-0.0014,0.0046,0.0017,0.0022,0.0027,0.0004,0.0005,-0.001,-0.001,-0.001,0,0.0384,0.0405,0.0368,0.0383,0.038,0.0323,0.0344,0.0313,0.0263,0.0255,0.0221,0.0137,0.008,0.0056,0.0059,0.0023,-0.0,0.0023,0.0027,0.0031,0.0034,0.0009,0.001,-0.0005,-0.0006,-0.0006,-0.0007,0,0.0434,0.045,0.046,0.0464,0.0453,0.0461,0.0422,0.0409,0.0375,0.0342,0.0307,0.0228,0.0183,0.0152,0.0108,0.0103,0.0077,0.0041,0.0014,0.0047,0.0018,0.0017,0.0001,-0.0,-0.0002,-0.0003,0,0,0.0462,0.0493,0.0496,0.0523,0.0502,0.0503,0.0504,0.049,0.0503,0.0434,0.0442,0.0355,0.0312,0.0277,0.0212,0.018,0.0174,0.0128,0.0124,0.0118,0.0117,0.0088,0.0084,0.0139,0.0139,0.0139,0.0089,0,0.0513,0.0578,0.0569,0.0622,0.0654,0.0614,0.0622,0.06,0.0566,0.0556,0.0471,0.0444,0.0358,0.0339,0.0296,0.021,0.0176,0.0191,0.0075,0.0072,0.0053,0.0083,0.0111,0.0068,0.0088,0.0088,0.0088,0,0.0562,0.0605,0.0676,0.0724,0.0733,0.0745,0.0761,0.0761,0.0724,0.0699,0.0654,0.0585,0.0528,0.0448,0.0327,0.0342,0.0244,0.0167,0.0162,0.0107,0.0042,0.0035,0.0066,-0.0101,0.0086,0.0086,0.0086,0,0.0614,0.0676,0.0744,0.0757,0.0794,0.0813,0.0821,0.0803,0.0828,0.0789,0.0807,0.0709,0.068,0.0547,0.0383,0.0359,0.0251,0.0193,0.0073,0.007,0.0057,0.0052,-0.0075,0.0109,0.011,0.011,0.011,0,0.0673,0.0725,0.0775,0.0812,0.0888,0.088,0.0946,0.0933,0.0947,0.0991,0.0887,0.0908,0.0705,0.0612,0.044,0.0269,0.0293,0.0099,0.006,0.0088,0.0087,-0.009,-0.0205,0.0108,0.0108,0.0109,0.0109,0,0.072,0.0752,0.0835,0.0896,0.0917,0.0966,0.1036,0.1087,0.1082,0.1141,0.1138,0.1071,0.0947,0.0738,0.0529,0.0361,0.0081,0.0107,0.0158,0.0125,-0.0151,-0.0262,-0.0441,-0.0516,-0.0026,-0.0027,-0.0028,0,0.0754,0.0803,0.0898,0.095,0.098,0.1055,0.1113,0.1143,0.121,0.1245,0.1292,0.12,0.1163,0.0859,0.0537,0.0244,0.0058,0.0064,0.0011,-0.0149,-0.0302,-0.0378,-0.0433,0.003,0.003,0.0029,0.0029,0,0.0819,0.0846,0.0918,0.1027,0.1101,0.12,0.1287,0.1369,0.141,0.1484,0.1553,0.1531,0.1236,0.0963,0.0549,0.0332,-0.0053,0.0049,-0.0127,-0.0272,-0.0351,-0.0446,0.0042,0.0028,0.0028,0.0028,0.0028,0.0028,0.086,0.0917,0.1004,0.1108,0.1202,0.1324,0.1419,0.1537,0.1672,0.1789,0.1757,0.1785,0.1367,0.0818,0.0491,-0.0067,-0.0098,-0.0233,-0.0353,-0.0413,-0.0491,-0.0004,-0.0063,-0.0063,-0.0063,-0.0064,-0.0064,0,0.0913,0.0979,0.1078,0.1203,0.1314,0.1354,0.1525,0.164,0.1819,0.1946,0.2024,0.1872,0.135,0.0805,0.004,-0.0371,-0.0516,-0.0603,-0.0701,-0.0739,-0.0304,-0.0306,-0.0406,-0.0406,-0.0406,-0.0406,-0.0405,-0.0405,0.094,0.1039,0.1089,0.1269,0.1361,0.1519,0.1623,0.1805,0.195,0.2135,0.2197,0.2213,0.1812,0.0398,-0.0523,-0.0737,-0.1022,-0.1109,-0.1258,-0.0965,-0.0939,-0.0914,-0.0941,-0.1172,-0.1173,-0.1604,-0.1609,-0.1613]}],[{"header":{"parameterUnit":"m.s-1","parameterCategory":2,"la1":30.2991,"la2":30.254,"lo1":-89.0895,"lo2":-89.0444,"dy":0.0017,"dx":0.0017,"nx":28,"ny":28,"refTime":"2025-03-29T03:00:00:Z","depth":"2","parameterNumber":2,"parameterNumberName":"U-component_of_CURRENTS"},"data":[0,0,0,0,0,0,0,0,0,0,0,0,0,0,0,0,0,0,0,0,0,0,0,0,0,0,0,0,0,0,0,0,0,0,0,0,0,0,0,0,0,0,0,0,0,0,0,0,0,0,0,0,0,0,0,0,0,0,0.3015,0.3015,0,0.3036,0.3036,0.3036,0.3046,0.3047,0.3047,0.3048,0.3098,0.3099,0.31,0,0,0,0,0,0,0,0,0,0,0,0,0,0.2956,0.2956,0.3014,0.3015,0.3016,0.3036,0.3036,0.3036,0.3046,0.3047,0.3047,0.3048,0.3098,0.3099,0.31,0,0,0,0,0,0,0,0,0,0,0,0,0,0.2974,0.2957,0.3014,0.3028,0.303,0.3036,0.3036,0.3036,0.3046,0.3047,0.3048,0.3048,0.3097,0.3099,0.31,0.3092,0,0,0.3104,0.3104,0,0,0,0,0,0,0,0,0.2973,0.2976,0.3025,0.3027,0.3029,0.3044,0.3034,0.3058,0.3046,0.3034,0.3048,0.3049,0.3086,0.3088,0.3082,0.3095,0.3097,0.3104,0.3105,0.3105,0.3106,0,0,0,0,0,0,0,0.2972,0.2975,0.3017,0.3026,0.3029,0.3024,0.3027,0.3038,0.3051,0.3035,0.3037,0.3048,0.3086,0.3081,0.3083,0.3098,0.3104,0.3105,0.3106,0.3106,0.3214,0.3216,0,0,0,0,0,0,0.2982,0.2974,0.3017,0.3019,0.3009,0.3025,0.3029,0.3034,0.3051,0.3055,0.3048,0.3049,0.3078,0.3082,0.3085,0.3166,0.3105,0.3106,0.3107,0.3212,0.3214,0.3217,0,0,0,0,0,0,0.298,0.2985,0.3016,0.3001,0.3006,0.3026,0.3032,0.3034,0.305,0.3061,0.3065,0.3064,0.3079,0.3084,0.3131,0.3165,0.3107,0.3108,0.3209,0.3213,0.3215,0.3271,0,0,0,0,0,0,0.2978,0.2984,0.2991,0.3002,0.3007,0.3043,0.3032,0.3034,0.3057,0.3059,0.3077,0.3081,0.308,0.3129,0.3132,0.3166,0.3109,0.3207,0.3211,0.3214,0.3266,0.3275,0.3283,0,0,0,0,0,0.2976,0.2984,0.2991,0.2997,0.3016,0.3045,0.3047,0.306,0.3057,0.3073,0.3094,0.3081,0.3156,0.3132,0.3135,0.3169,0.3205,0.321,0.3214,0.3263,0.3274,0.3283,0,0,0,0,0,0,0.2962,0.2987,0.2994,0.301,0.3038,0.305,0.3064,0.3071,0.3094,0.3101,0.3104,0.3111,0.3164,0.3163,0.3136,0.3215,0.318,0.3185,0.3216,0.3226,0.3234,0.3259,0.311,0,0,0,0,0,0.2963,0.2977,0.3005,0.3021,0.3036,0.3051,0.3064,0.3077,0.31,0.3111,0.3124,0.3147,0.3181,0.3201,0.3222,0.3261,0.3279,0.3289,0.3297,0.3304,0.3329,0.3389,0.3405,0.3232,0.3232,0.3232,0,0,0.2962,0.298,0.2987,0.302,0.3037,0.3066,0.306,0.3092,0.3121,0.3113,0.3155,0.3175,0.3199,0.3249,0.3273,0.3255,0.3361,0.331,0.3316,0.3337,0.3396,0.3412,0.3427,0.3235,0.3235,0.3234,0,0,0.2968,0.2985,0.2999,0.3028,0.3069,0.3084,0.3101,0.3127,0.3148,0.3194,0.3202,0.3257,0.3283,0.3323,0.3343,0.3414,0.3402,0.3409,0.3474,0.3531,0.3546,0.3559,0.3593,0.3609,0.3415,0.3415,0.3415,0,0.2966,0.2987,0.3011,0.304,0.3066,0.3098,0.3127,0.3156,0.3196,0.3226,0.3221,0.3311,0.3328,0.3414,0.3442,0.3435,0.3452,0.3428,0.3542,0.3555,0.3568,0.36,0.3617,0.3418,0.3418,0.3417,0.3417,0,0.2982,0.3009,0.3025,0.307,0.3104,0.3137,0.3186,0.3224,0.3252,0.3285,0.3373,0.3411,0.3473,0.3484,0.3486,0.3587,0.3564,0.3542,0.3513,0.3589,0.3617,0.3634,0.3423,0.3421,0.342,0.342,0,0,0.295,0.3019,0.3025,0.3053,0.3123,0.3149,0.3217,0.3285,0.3333,0.3396,0.3469,0.3551,0.3582,0.361,0.3626,0.3683,0.3781,0.3654,0.3655,0.3683,0.3894,0.3782,0.3788,0.377,0.3773,0.3776,0.3874,0,0.2954,0.3002,0.3042,0.3097,0.3127,0.319,0.3246,0.3319,0.3382,0.346,0.3546,0.3615,0.3627,0.3659,0.3731,0.3766,0.3829,0.3756,0.3822,0.3825,0.3711,0.3806,0.3531,0.3587,0.389,0.3892,0.3894,0,0.2951,0.2986,0.3033,0.3111,0.313,0.3169,0.3268,0.3325,0.3453,0.3506,0.362,0.3676,0.3803,0.378,0.3927,0.3876,0.3906,0.3927,0.393,0.3823,0.3744,0.3564,0.3605,0.3921,0.3919,0.3917,0.3915,0,0.2905,0.2978,0.3012,0.304,0.3134,0.317,0.3221,0.3337,0.3408,0.354,0.3613,0.3755,0.3835,0.3917,0.3985,0.3962,0.4114,0.408,0.4014,0.4005,0.3786,0.3751,0.4189,0.4189,0.4189,0.4189,0.4189,0,0.2889,0.2918,0.2991,0.3012,0.306,0.3136,0.3208,0.3283,0.342,0.3498,0.3635,0.3726,0.3874,0.3977,0.402,0.4072,0.4151,0.4056,0.4038,0.3795,0.3761,0.4059,0.4043,0.4192,0.4192,0.4191,0.419,0,0.2843,0.2889,0.2931,0.3015,0.304,0.3073,0.3193,0.3247,0.3381,0.3494,0.3544,0.3743,0.3858,0.398,0.4103,0.4104,0.4156,0.4146,0.384,0.3785,0.4002,0.3987,0.4104,0.4101,0.4099,0.4097,0.4095,0,0.2825,0.2841,0.2914,0.2929,0.2966,0.3029,0.3068,0.3207,0.3269,0.348,0.3523,0.3704,0.3798,0.3959,0.398,0.4045,0.4115,0.3799,0.3714,0.4031,0.4002,0.3991,0.398,0.3446,0.3439,0.3434,0.3429,0,0.2792,0.2814,0.2845,0.287,0.2901,0.2947,0.3012,0.3066,0.3214,0.3314,0.3441,0.3545,0.3712,0.3664,0.3745,0.3738,0.3767,0.3685,0.4119,0.35,0.3415,0.3384,0.3395,0.3379,0.3384,0.3388,0.3391,0.3393,0.2757,0.2756,0.2778,0.2792,0.2822,0.2832,0.2826,0.2911,0.2986,0.3089,0.3254,0.3306,0.3399,0.3395,0.3318,0.3269,0.3531,0.3393,0.3408,0.343,0.3326,0.3241,0.3153,0.3156,0.3159,0.3162,0.3164,0,0.2685,0.2683,0.2694,0.2684,0.2655,0.2718,0.2752,0.2719,0.2728,0.2871,0.2957,0.2792,0.2801,0.2878,0.2752,0.2777,0.2736,0.2651,0.2579,0.2633,0.2681,0.2535,0.2153,0.2149,0.2145,0.2142,0,0,0.2645,0.2604,0.2593,0.2503,0.2499,0.2422,0.2411,0.2398,0.2452,0.2443,0.2459,0.2699,0.2825,0.2445,0.2421,0.226,0.2414,0.2173,0.3001,0.2972,0.3014,0.3144,0.2987,0,0,0,0,0]},{"header":{"parameterUnit":"m.s-1","parameterCategory":2,"la1":30.2991,"la2":30.254,"lo1":-89.0895,"lo2":-89.0444,"dy":0.0017,"dx":0.0017,"nx":28,"ny":28,"refTime":"2025-03-29T03:00:00:Z","depth":"2","parameterNumber":3,"parameterNumberName":"V-component_of_CURRENTS"},"data":[0,0,0,0,0,0,0,0,0,0,0,0,0,0,0,0,0,0,0,0,0,0,0,0,0,0,0,0,0,0,0,0,0,0,0,0,0,0,0,0,0,0,0,0,0,0,0,0,0,0,0,0,0,0,0,0,0,0,0.0089,0.0088,0,-0.0015,-0.0016,-0.0018,-0.0087,-0.0087,-0.0088,-0.0088,-0.0209,-0.0212,-0.0215,0,0,0,0,0,0,0,0,0,0,0,0,0,0.016,0.0159,0.0089,0.0088,0.0087,-0.0015,-0.0016,-0.0018,-0.0087,-0.0087,-0.0088,-0.0088,-0.0208,-0.0212,-0.0215,0,0,0,0,0,0,0,0,0,0,0,0,0,0.0098,0.0159,0.0089,0.0042,0.0037,-0.0014,-0.0016,-0.0018,-0.0087,-0.0087,-0.0088,-0.0088,-0.0207,-0.0211,-0.0216,-0.0235,0,0,-0.0229,-0.0231,0,0,0,0,0,0,0,0,0.0102,0.0095,0.005,0.0045,0.0039,-0.0036,-0.0036,-0.0091,-0.0087,-0.0042,-0.0088,-0.0088,-0.0151,-0.016,-0.0182,-0.024,-0.0245,-0.023,-0.0232,-0.0234,-0.0235,0,0,0,0,0,0,0,0.0106,0.0099,0.0046,0.0049,0.0042,0.0002,-0.0006,-0.0047,-0.0095,-0.0046,-0.0051,-0.0059,-0.0155,-0.0177,-0.0185,-0.0247,-0.0229,-0.0233,-0.0236,-0.0238,-0.0321,-0.0321,0,0,0,0,0,0,0.0127,0.0103,0.0049,0.0043,0.0072,0.0002,-0.0008,-0.0014,-0.0094,-0.0106,-0.0058,-0.0062,-0.0169,-0.018,-0.019,-0.0199,-0.0234,-0.0238,-0.0241,-0.0321,-0.0321,-0.032,0,0,0,0,0,0,0.0129,0.0123,0.0053,0.0072,0.0061,0.0002,-0.0004,-0.0015,-0.0034,-0.0103,-0.0116,-0.0064,-0.017,-0.0183,-0.0217,-0.0205,-0.024,-0.0244,-0.0322,-0.0321,-0.0321,-0.023,0,0,0,0,0,0,0.0132,0.0125,0.0128,0.0074,0.0061,0.0036,-0.0004,-0.0017,-0.0037,-0.0042,-0.0112,-0.0125,-0.0171,-0.021,-0.0221,-0.0212,-0.0248,-0.0323,-0.0322,-0.0321,-0.0234,-0.0226,-0.022,0,0,0,0,0,0.0135,0.0145,0.0129,0.0123,0.0068,0.0037,0.0026,-0.0019,-0.0036,-0.0038,-0.0085,-0.0122,-0.0213,-0.0213,-0.0226,-0.0218,-0.0323,-0.0322,-0.0321,-0.0237,-0.0228,-0.022,0,0,0,0,0,0,0.0172,0.0137,0.0119,0.0117,0.0085,0.0026,0.0021,-0.0009,-0.0049,-0.0051,-0.0118,-0.0133,-0.0159,-0.02,-0.0198,-0.024,-0.0273,-0.0275,-0.0205,-0.0197,-0.019,-0.0163,-0.0252,0,0,0,0,0,0.0185,0.0185,0.0142,0.014,0.0131,0.0079,0.0061,0.0034,-0.0009,-0.0027,-0.0076,-0.0126,-0.0166,-0.0188,-0.0231,-0.0253,-0.0284,-0.0257,-0.025,-0.0244,-0.0231,-0.0268,-0.0263,-0.0317,-0.0317,-0.0317,0,0,0.0197,0.0179,0.0178,0.0149,0.0121,0.0119,0.0067,0.0052,0.0046,-0.0033,-0.0054,-0.0103,-0.0166,-0.0192,-0.0207,-0.0224,-0.0244,-0.0243,-0.0237,-0.0228,-0.0267,-0.0261,-0.0257,-0.0316,-0.0316,-0.0317,0,0,0.0231,0.0211,0.0227,0.021,0.0183,0.0152,0.0155,0.0106,0.0082,0.0055,-0.0001,-0.0038,-0.0104,-0.0144,-0.0174,-0.0155,-0.0206,-0.0171,-0.0117,-0.0152,-0.0148,-0.0144,-0.0167,-0.0167,-0.0168,-0.0168,-0.0168,0,0.0247,0.0263,0.0225,0.0238,0.0234,0.0176,0.0195,0.016,0.0105,0.0094,0.0063,-0.0025,-0.008,-0.0108,-0.0106,-0.0138,-0.0163,-0.0141,-0.0142,-0.0139,-0.0137,-0.0162,-0.0162,-0.0163,-0.0164,-0.0164,-0.0165,0,0.0294,0.0307,0.0316,0.0316,0.0305,0.0312,0.0269,0.0254,0.0218,0.018,0.0144,0.0065,0.0018,-0.0011,-0.0056,-0.0068,-0.0091,-0.0127,-0.0158,-0.0126,-0.0154,-0.0156,-0.0157,-0.0159,-0.016,-0.0161,0,0,0.0324,0.0348,0.035,0.0375,0.0352,0.0353,0.0347,0.0329,0.0336,0.0267,0.0267,0.0182,0.014,0.0104,0.004,0.0002,-0.0011,-0.0049,-0.0053,-0.0062,-0.0077,-0.0096,-0.0101,-0.0048,-0.0048,-0.0048,-0.0099,0,0.0372,0.0431,0.042,0.0468,0.0498,0.0456,0.0459,0.0433,0.0395,0.0378,0.0293,0.0264,0.0182,0.0165,0.0115,0.0022,-0.0013,0.0008,-0.0115,-0.0118,-0.0132,-0.0103,-0.0071,-0.0114,-0.0101,-0.0102,-0.0102,0,0.042,0.0459,0.0524,0.0566,0.0574,0.0585,0.0594,0.0588,0.0542,0.0512,0.0463,0.0398,0.0333,0.0259,0.0126,0.0144,0.0048,-0.0031,-0.0035,-0.0085,-0.0141,-0.0148,-0.0119,-0.0106,-0.0106,-0.0106,-0.0105,0,0.0473,0.0529,0.0592,0.0603,0.0634,0.0651,0.0655,0.0629,0.0648,0.0599,0.0609,0.0508,0.0474,0.0339,0.0172,0.0154,0.0025,-0.0023,-0.0129,-0.0132,-0.0144,-0.0147,-0.011,-0.011,-0.0109,-0.0109,-0.0109,0,0.0532,0.058,0.0624,0.0659,0.0731,0.0719,0.0778,0.0758,0.076,0.0794,0.0686,0.0696,0.0492,0.0391,0.0222,0.0049,0.0063,-0.0106,-0.0144,-0.0111,-0.0111,-0.0141,-0.0144,-0.0111,-0.0111,-0.011,-0.011,0,0.0582,0.0608,0.0686,0.074,0.076,0.0807,0.0869,0.0913,0.0894,0.0937,0.0933,0.0848,0.0716,0.0506,0.0292,0.0131,-0.0048,-0.0117,-0.0059,-0.0088,-0.0191,-0.0189,-0.0226,-0.0227,-0.0228,-0.0229,-0.023,0,0.0617,0.0662,0.0749,0.0798,0.0825,0.0897,0.095,0.0969,0.1024,0.1034,0.1069,0.0969,0.0914,0.06,0.0299,0.0017,-0.0037,-0.0146,-0.0183,-0.0169,-0.0202,-0.0198,-0.0195,-0.0161,-0.0161,-0.0161,-0.0161,0,0.0681,0.0705,0.0771,0.0874,0.0943,0.1037,0.1114,0.1185,0.1209,0.126,0.1298,0.1261,0.0968,0.0695,0.03,0.0105,-0.0101,-0.0155,-0.0153,-0.0137,-0.0113,-0.0144,-0.0142,-0.0162,-0.0162,-0.0162,-0.0162,-0.0162,0.0721,0.0774,0.0853,0.095,0.1039,0.1149,0.1234,0.1332,0.1441,0.1512,0.1474,0.1429,0.1102,0.062,0.0269,-0.0098,-0.0084,-0.0217,-0.0215,-0.0213,-0.0197,-0.0176,-0.0232,-0.0233,-0.0233,-0.0233,-0.0234,0,0.0769,0.0828,0.0921,0.1035,0.1137,0.1178,0.1328,0.1418,0.1558,0.1631,0.167,0.1378,0.1068,0.0687,0.0148,-0.0175,-0.0199,-0.0277,-0.024,-0.0237,-0.0235,-0.0219,-0.0261,-0.0262,-0.0263,-0.0264,0,0,0.0792,0.0881,0.0925,0.1086,0.1174,0.1315,0.1405,0.1544,0.1642,0.1724,0.1716,0.1664,0.1198,0.0805,0.0359,0.0046,-0.0019,-0.0012,0.0047,0.0148,0.0154,-0.0162,-0.0129,0,0,0,0,0]}],[{"header":{"parameterUnit":"m.s-1","parameterCategory":2,"la1":30.2991,"la2":30.254,"lo1":-89.0895,"lo2":-89.0444,"dy":0.0017,"dx":0.0017,"nx":28,"ny":28,"refTime":"2025-03-29T03:00:00:Z","depth":"4","parameterNumber":2,"parameterNumberName":"U-component_of_CURRENTS"},"data":[0,0,0,0,0,0,0,0,0,0,0,0,0,0,0,0,0,0,0,0,0,0,0,0,0,0,0,0,0,0,0,0,0,0,0,0,0,0,0,0,0,0,0,0,0,0,0,0,0,0,0,0,0,0,0,0,0,0,0.1944,0.1945,0,0.1981,0.1981,0.1981,0.2006,0.2007,0.2008,0.2008,0.205,0.205,0.2051,0,0,0,0,0,0,0,0,0,0,0,0,0,0.1889,0.189,0.1944,0.1945,0.1946,0.1981,0.1981,0.1981,0.2006,0.2007,0.2008,0.2008,0.2049,0.205,0.2051,0,0,0,0,0,0,0,0,0,0,0,0,0,0.1914,0.189,0.1944,0.1966,0.1968,0.1981,0.1981,0.1981,0.2006,0.2007,0.2008,0.2009,0.2049,0.205,0.2051,0.2038,0,0,0.2053,0.2054,0,0,0,0,0,0,0,0,0.1913,0.1915,0.1962,0.1964,0.1967,0.1994,0.1977,0.2002,0.2006,0.1987,0.2008,0.2009,0.2033,0.2036,0.2034,0.204,0.2042,0.2053,0.2054,0.2054,0.2055,0,0,0,0,0,0,0,0.1911,0.1914,0.1954,0.1963,0.1966,0.1972,0.1976,0.1981,0.2002,0.1989,0.1992,0.2003,0.2035,0.2033,0.2036,0.2043,0.2053,0.2054,0.2055,0.2055,0.2146,0.2148,0,0,0,0,0,0,0.1914,0.1912,0.1953,0.1956,0.1946,0.1972,0.1977,0.1981,0.2002,0.2007,0.2002,0.2004,0.2032,0.2035,0.2037,0.2121,0.2054,0.2055,0.2056,0.2144,0.2147,0.2149,0,0,0,0,0,0,0.1913,0.1917,0.1952,0.1939,0.1944,0.1973,0.1977,0.1981,0.2023,0.2012,0.2017,0.2045,0.2032,0.2036,0.2076,0.2119,0.2055,0.2056,0.2142,0.2145,0.2148,0.2226,0,0,0,0,0,0,0.1911,0.1916,0.1941,0.1939,0.1945,0.1988,0.1977,0.1981,0.2028,0.2032,0.205,0.2052,0.2033,0.2075,0.2077,0.2119,0.2057,0.214,0.2144,0.2147,0.2221,0.2231,0.224,0,0,0,0,0,0.1909,0.1928,0.1942,0.1948,0.1971,0.199,0.1995,0.2014,0.203,0.2054,0.2067,0.2054,0.2099,0.2077,0.2079,0.2122,0.2138,0.2142,0.2147,0.2217,0.2229,0.2239,0,0,0,0,0,0,0.1918,0.1933,0.1948,0.1972,0.1998,0.1997,0.2029,0.2042,0.207,0.2089,0.2073,0.2076,0.2128,0.2116,0.2092,0.216,0.2119,0.2124,0.2172,0.2183,0.2192,0.22,0.2058,0,0,0,0,0,0.1932,0.1954,0.1969,0.1997,0.2014,0.2033,0.2053,0.2069,0.2085,0.2101,0.2114,0.2129,0.214,0.2156,0.2164,0.22,0.2201,0.2232,0.2241,0.2249,0.2258,0.2298,0.2312,0.2163,0.2163,0.2163,0,0,0.1945,0.1958,0.1973,0.2002,0.2025,0.2051,0.2047,0.2094,0.2123,0.21,0.216,0.2167,0.2158,0.2197,0.2219,0.2197,0.2294,0.2255,0.2261,0.2266,0.2304,0.2319,0.2332,0.2166,0.2166,0.2165,0,0,0.1965,0.1997,0.2019,0.2046,0.2093,0.2101,0.2126,0.2157,0.2186,0.2233,0.2225,0.2261,0.2285,0.2283,0.2282,0.2351,0.2344,0.2365,0.2419,0.2459,0.2471,0.2482,0.2509,0.2521,0.2369,0.2369,0.2369,0,0.1988,0.2009,0.2032,0.2061,0.2093,0.2128,0.2162,0.219,0.2233,0.2259,0.227,0.232,0.2321,0.235,0.2378,0.2373,0.2393,0.2374,0.2471,0.2482,0.2492,0.2516,0.2529,0.2373,0.2373,0.2372,0.2372,0,0.2005,0.2047,0.2068,0.2112,0.2149,0.2191,0.2229,0.228,0.2324,0.2343,0.2411,0.2417,0.2446,0.2456,0.2439,0.251,0.2502,0.2479,0.244,0.2511,0.2533,0.2545,0.2379,0.2378,0.2376,0.2375,0,0,0.1987,0.2064,0.2077,0.2113,0.2185,0.221,0.2278,0.2331,0.2377,0.2436,0.2492,0.2526,0.2548,0.2549,0.2546,0.2582,0.2671,0.2573,0.2573,0.2597,0.2767,0.2612,0.261,0.2675,0.2677,0.2679,0.2755,0,0.2,0.2056,0.2095,0.2167,0.2202,0.2266,0.2318,0.238,0.2435,0.2499,0.2534,0.2587,0.2576,0.261,0.2647,0.2665,0.2707,0.2653,0.2697,0.2698,0.2549,0.262,0.2687,0.2764,0.2767,0.2769,0.277,0,0.1992,0.2037,0.2105,0.2196,0.222,0.2273,0.2371,0.2424,0.2512,0.2562,0.2628,0.2657,0.2728,0.271,0.2791,0.2765,0.2783,0.2791,0.2793,0.2628,0.2565,0.2677,0.2792,0.279,0.2788,0.2787,0.2786,0,0.1945,0.204,0.2097,0.2131,0.2235,0.2293,0.2356,0.2449,0.2514,0.2616,0.2682,0.2745,0.2814,0.2845,0.2883,0.2853,0.2966,0.2914,0.279,0.2779,0.286,0.2847,0.2979,0.2979,0.2979,0.2979,0.2979,0,0.1915,0.197,0.209,0.2122,0.2202,0.2286,0.2381,0.2451,0.257,0.2631,0.2723,0.2778,0.2863,0.2929,0.2926,0.2902,0.3007,0.2813,0.2792,0.2892,0.2882,0.2869,0.2855,0.2982,0.2981,0.298,0.298,0,0.1851,0.1928,0.2006,0.2135,0.2183,0.2246,0.2406,0.2459,0.2592,0.2683,0.273,0.2858,0.2922,0.2985,0.3043,0.2956,0.2942,0.2911,0.3036,0.302,0.2713,0.2703,0.2751,0.2747,0.2743,0.2739,0.2736,0,0.1814,0.185,0.2006,0.2054,0.2124,0.2236,0.2299,0.2451,0.2503,0.2691,0.2709,0.2854,0.2905,0.2871,0.2942,0.2934,0.29,0.2876,0.2765,0.2717,0.2693,0.2689,0.2684,0.273,0.2729,0.2728,0.2727,0,0.175,0.1828,0.1893,0.1992,0.2076,0.2155,0.2258,0.2293,0.2441,0.2598,0.2623,0.2654,0.2732,0.2753,0.2797,0.2775,0.2869,0.2833,0.2839,0.2734,0.2692,0.2671,0.2671,0.2713,0.2715,0.2716,0.2717,0,0.1709,0.1738,0.1831,0.1901,0.1999,0.2024,0.2103,0.2154,0.2235,0.2425,0.2426,0.2562,0.2695,0.2674,0.2698,0.2685,0.2621,0.2511,0.2532,0.2549,0.2446,0.236,0.2274,0,0,0,0,0,0.1652,0.1664,0.1724,0.1783,0.1871,0.1922,0.2041,0.2116,0.2263,0.222,0.2317,0.2361,0.2398,0.2476,0.2418,0.261,0.2639,0.2532,0.2526,0.2636,0.2652,0.2549,0,0,0,0,0,0,0.1608,0.1666,0.1679,0.1663,0.1677,0.1749,0.1817,0.1921,0.1902,0.2063,0.2097,0.2221,0.2297,0.2405,0.2373,0.2396,0.2344,0.2626,0.262,0.2627,0.2641,0.2654,0.2554,0,0,0,0,0]},{"header":{"parameterUnit":"m.s-1","parameterCategory":2,"la1":30.2991,"la2":30.254,"lo1":-89.0895,"lo2":-89.0444,"dy":0.0017,"dx":0.0017,"nx":28,"ny":28,"refTime":"2025-03-29T03:00:00:Z","depth":"4","parameterNumber":3,"parameterNumberName":"V-component_of_CURRENTS"},"data":[0,0,0,0,0,0,0,0,0,0,0,0,0,0,0,0,0,0,0,0,0,0,0,0,0,0,0,0,0,0,0,0,0,0,0,0,0,0,0,0,0,0,0,0,0,0,0,0,0,0,0,0,0,0,0,0,0,0,0.005,0.005,0,-0.0024,-0.0025,-0.0026,-0.008,-0.008,-0.0081,-0.0081,-0.0169,-0.0171,-0.0173,0,0,0,0,0,0,0,0,0,0,0,0,0,0.0101,0.0101,0.005,0.0049,0.0049,-0.0024,-0.0025,-0.0026,-0.008,-0.008,-0.0081,-0.0081,-0.0169,-0.0171,-0.0174,0,0,0,0,0,0,0,0,0,0,0,0,0,0.0057,0.0101,0.005,0.0014,0.001,-0.0024,-0.0025,-0.0026,-0.008,-0.008,-0.0081,-0.0081,-0.0168,-0.0171,-0.0174,-0.0182,0,0,-0.0183,-0.0184,0,0,0,0,0,0,0,0,0.006,0.0055,0.002,0.0016,0.0012,-0.0042,-0.0039,-0.0079,-0.008,-0.0047,-0.0081,-0.0081,-0.0127,-0.0133,-0.0148,-0.0186,-0.019,-0.0183,-0.0185,-0.0187,-0.0187,0,0,0,0,0,0,0,0.0063,0.0058,0.002,0.0019,0.0014,-0.0014,-0.002,-0.0047,-0.0084,-0.005,-0.0054,-0.006,-0.013,-0.0145,-0.015,-0.0191,-0.0183,-0.0186,-0.0188,-0.0189,-0.0242,-0.0242,0,0,0,0,0,0,0.0077,0.0061,0.0022,0.0018,0.0036,-0.0014,-0.0021,-0.0025,-0.0084,-0.0093,-0.0059,-0.0062,-0.0139,-0.0147,-0.0153,-0.0157,-0.0187,-0.0189,-0.0191,-0.0243,-0.0242,-0.0242,0,0,0,0,0,0,0.0079,0.0075,0.0025,0.0038,0.003,-0.0014,-0.0018,-0.0026,-0.004,-0.0091,-0.01,-0.0064,-0.014,-0.0149,-0.0173,-0.0161,-0.0191,-0.0194,-0.0243,-0.0243,-0.0242,-0.017,0,0,0,0,0,0,0.0081,0.0076,0.008,0.004,0.003,0.0013,-0.0018,-0.0027,-0.0042,-0.0047,-0.0097,-0.0107,-0.0141,-0.0168,-0.0176,-0.0166,-0.0196,-0.0244,-0.0243,-0.0242,-0.0173,-0.0167,-0.0162,0,0,0,0,0,0.0083,0.0092,0.0081,0.0076,0.0037,0.0014,0.0007,-0.0028,-0.0042,-0.0043,-0.0077,-0.0105,-0.0169,-0.017,-0.0179,-0.017,-0.0244,-0.0243,-0.0242,-0.0175,-0.0168,-0.0162,0,0,0,0,0,0,0.0112,0.0086,0.0073,0.0072,0.0049,0.0005,0.0003,-0.002,-0.0049,-0.005,-0.0101,-0.0112,-0.0129,-0.0158,-0.0158,-0.0183,-0.0211,-0.0211,-0.0156,-0.015,-0.0145,-0.0128,-0.0198,0,0,0,0,0,0.0123,0.0124,0.0092,0.0092,0.0085,0.0047,0.0034,0.0013,-0.0019,-0.0032,-0.0068,-0.0104,-0.0132,-0.0147,-0.0178,-0.019,-0.0222,-0.019,-0.0185,-0.018,-0.0173,-0.0211,-0.0208,-0.0239,-0.0239,-0.0239,0,0,0.0134,0.012,0.012,0.0098,0.0079,0.0078,0.0038,0.0027,0.0023,-0.0036,-0.0049,-0.0086,-0.0131,-0.0147,-0.0156,-0.0169,-0.0187,-0.0179,-0.0174,-0.017,-0.0209,-0.0206,-0.0204,-0.0238,-0.0238,-0.0238,0,0,0.0161,0.0147,0.0159,0.0147,0.0127,0.0105,0.0107,0.007,0.0052,0.0034,-0.0007,-0.0034,-0.008,-0.0109,-0.0129,-0.0111,-0.0157,-0.0121,-0.008,-0.0116,-0.0114,-0.0112,-0.0144,-0.0146,-0.0118,-0.0118,-0.0118,0,0.0174,0.0187,0.0159,0.0169,0.0168,0.0124,0.014,0.0114,0.0073,0.0065,0.0041,-0.0023,-0.0061,-0.008,-0.0075,-0.0098,-0.0126,-0.01,-0.0108,-0.0107,-0.0107,-0.014,-0.0143,-0.0114,-0.0114,-0.0115,-0.0115,0,0.021,0.0222,0.023,0.0232,0.0225,0.0231,0.02,0.019,0.0163,0.0133,0.0106,0.0049,0.0013,-0.0005,-0.0036,-0.0048,-0.0071,-0.0096,-0.0122,-0.0099,-0.0136,-0.014,-0.0109,-0.011,-0.0111,-0.0112,0,0,0.0233,0.0254,0.0257,0.0278,0.0263,0.0265,0.0264,0.025,0.0255,0.0202,0.02,0.0141,0.0106,0.008,0.0035,0.0001,-0.0021,-0.004,-0.0043,-0.0065,-0.0099,-0.0094,-0.0099,-0.0049,-0.005,-0.005,-0.0125,0,0.0271,0.0318,0.0311,0.0354,0.0378,0.0348,0.0354,0.0334,0.0304,0.0288,0.0221,0.02,0.0139,0.0128,0.0083,0.0005,-0.003,0.0001,-0.0123,-0.0127,-0.012,-0.0102,-0.0051,-0.0128,-0.0129,-0.013,-0.0131,0,0.0307,0.0339,0.0393,0.0431,0.0438,0.0453,0.0463,0.046,0.042,0.0396,0.0353,0.0299,0.0243,0.0189,0.0065,0.0087,0.0005,-0.0062,-0.0067,-0.0089,-0.0129,-0.0159,-0.0139,-0.0138,-0.0138,-0.0137,-0.0137,0,0.0346,0.0394,0.0447,0.0458,0.0487,0.0507,0.0514,0.0494,0.0509,0.0466,0.0472,0.038,0.0349,0.0229,0.0088,0.0078,-0.0052,-0.0086,-0.016,-0.0162,-0.0177,-0.0178,-0.0169,-0.0169,-0.0169,-0.0169,-0.0168,0,0.0387,0.0431,0.0474,0.0503,0.0568,0.0562,0.0616,0.0601,0.0601,0.0624,0.0534,0.0532,0.0359,0.0261,0.0118,-0.003,-0.0033,-0.0146,-0.0177,-0.0145,-0.0142,-0.018,-0.0181,-0.0171,-0.0171,-0.017,-0.017,0,0.0422,0.0448,0.0514,0.0567,0.0589,0.0632,0.0695,0.0729,0.0716,0.0744,0.074,0.0652,0.0524,0.0346,0.0152,0.0029,-0.0125,-0.0178,-0.012,-0.0148,-0.022,-0.0215,-0.0265,-0.0265,-0.0265,-0.0266,-0.0266,0,0.0444,0.0482,0.0565,0.061,0.0639,0.0708,0.0757,0.0779,0.0816,0.0816,0.0831,0.0737,0.065,0.0391,0.0189,-0.0077,-0.0121,-0.0206,-0.0223,-0.0203,-0.0228,-0.0223,-0.0219,-0.0266,-0.0266,-0.0266,-0.0267,0,0.0483,0.0511,0.0567,0.0661,0.0728,0.0811,0.0878,0.0921,0.094,0.0945,0.0914,0.0778,0.0637,0.0412,0.0209,0.0012,-0.0156,-0.021,-0.0211,-0.0229,-0.0205,-0.0229,-0.0224,-0.0268,-0.0267,-0.0267,-0.0267,0,0.0509,0.0549,0.0618,0.0701,0.0792,0.0871,0.0914,0.096,0.0999,0.0993,0.0984,0.0822,0.0731,0.046,0.027,0.0081,0.0023,-0.0055,-0.0066,-0.0067,0.0005,0.0064,0.0067,0,0,0,0,0,0.0528,0.057,0.0649,0.0737,0.0832,0.0881,0.0974,0.1007,0.104,0.1028,0.1007,0.0872,0.0606,0.0498,0.0311,0.0245,-0.0022,0.0017,-0.0121,-0.0273,-0.0272,-0.0222,0,0,0,0,0,0,0.0536,0.061,0.0645,0.0752,0.0815,0.0918,0.0978,0.1004,0.1,0.1005,0.0875,0.0812,0.056,0.071,0.0303,0.0247,0.013,-0.0103,-0.0107,-0.0274,-0.0273,-0.0272,-0.022,0,0,0,0,0]}]]